{"data":{"norad_id":63960,"intl_designator":"2025-099J","name":"STARLINK-34107","alt_names":[],"object_type":"PAYLOAD","status":"ACTIVE","operator":null,"country":"US","launch_date":"2025-05-13","launch_site_code":"AFETR","launch_vehicle":null,"mission":null,"orbit_class":"UNKNOWN","rcs_meters":null,"size_class":null,"mass_kg":null,"dimensions":null,"purposes":["comms"],"wikipedia_slug":null,"has_3d_model":false,"image_url":null,"decayed_at":null,"tle_current":{"epoch":"2026-09-20T23:44:32.914176Z","epoch_age_seconds":104855,"freshness":"FRESH","line1":"1 63960U 25099J   26263.98926984  .00013376  00000+0  49459-3 0  9996","line2":"2 63960  42.9987 153.3715 0000952 262.0864  97.9879 15.27588881 77202","mean_motion":15.27588881,"eccentricity":9.52e-5,"inclination_deg":42.9987,"raan_deg":153.3715,"arg_perigee_deg":262.0864,"mean_anomaly_deg":97.9879,"bstar":0.00049459,"rev_number":7720,"period_min":94.266200671567,"perigee_km":482.36932087486,"apogee_km":483.67568564428,"semimajor_km":6861.1595032596,"source":"CELESTRAK","updated_at":"2026-09-21T09:00:35.175288Z"}}}